Weather History for KCWI - January, 2011

Change the Weather History Date:

Saturday, January 8, 2011

  Actual Average Record
Temperature  
Mean Temperature 14 °F -  
Max Temperature 19 °F 24 °F 59 °F (2003)
Min Temperature 8 °F 6 °F -19 °F (1970)
Degree Days  
Heating Degree Days 52    
Moisture  
Dew Point 5 °F    
Average Humidity 71    
Maximum Humidity 79    
Minimum Humidity 58    
Precipitation  
Precipitation 0.00 in - - ()
Sea Level Pressure  
Sea Level Pressure 29.88 in    
Wind  
Wind Speed 14 mph (NW)    
Max Wind Speed 21 mph    
Max Gust Speed 24 mph    
Visibility 10 miles    
Events      
Averages and records for this station are not official NWS values.
T = Trace of Precipitation, MM = Missing Value Source: NWS Daily Summary

Daily Weather History Graph

Daily Weather History Graph

Search for Another Location

Airport or City:

Trip Planner

Search our weather history database for the weather conditions in past years. The results will help you decide how hot, cold, wet, or windy it might be!

Date:

Astronomy

Jan. 08, 2011 Rise Set
Actual Time 7:28 AM CST 4:47 PM CST
Civil Twilight 6:57 AM CST 5:18 PM CST
Nautical Twilight 6:22 AM CST 5:53 PM CST
Astronomical Twilight 5:49 AM CST 6:27 PM CST
Moon 9:32 AM CST (1/8) 9:25 PM CST (1/8)
Length of Visible Light 10h 21m
Length of Day
9h 18m
Waxing Crescent, 18% of the Moon is Illuminated
Jan 8
Waxing Crescent
Jan 12
First Quarter
Jan 19
Full
Jan 26
Last Quarter
Feb 2
New

Hourly Weather History & Observations

Time (CST) Temp. Windchill Dew Point Humidity Pressure Visibility Wind Dir Wind Speed Gust Speed Precip Events Conditions
12:15 AM 10.4 °F -6.0 °F 3.2 °F 73% 29.67 in 10.0 mi NNW 15.0 mph - N/A   Partly Cloudy
12:35 AM 10.4 °F -5.4 °F 1.4 °F 67% 29.67 in 10.0 mi NNW 13.8 mph - N/A   Clear
12:55 AM 10.4 °F -4.1 °F 1.4 °F 67% 29.68 in 10.0 mi NW 11.5 mph - N/A   Clear
1:15 AM 8.6 °F -7.0 °F 1.4 °F 73% 29.69 in 10.0 mi NW 12.7 mph - N/A   Clear
1:35 AM 8.6 °F -6.3 °F 3.2 °F 79% 29.70 in 10.0 mi NW 11.5 mph - N/A   Clear
1:55 AM 8.6 °F -8.3 °F 3.2 °F 79% 29.70 in 10.0 mi NW 15.0 mph - N/A   Clear
2:15 AM 8.6 °F -7.7 °F 3.2 °F 79% 29.71 in 10.0 mi NW 13.8 mph - N/A   Clear
2:35 AM 8.6 °F -8.3 °F 3.2 °F 79% 29.72 in 10.0 mi NW 15.0 mph - N/A   Clear
2:55 AM 8.6 °F -8.3 °F 3.2 °F 79% 29.73 in 10.0 mi NW 15.0 mph - N/A   Clear
3:15 AM 8.6 °F -8.3 °F 1.4 °F 73% 29.73 in 10.0 mi NW 15.0 mph - N/A   Clear
3:35 AM 8.6 °F -8.3 °F 1.4 °F 73% 29.74 in 10.0 mi NW 15.0 mph - N/A   Partly Cloudy
3:55 AM 8.6 °F -8.3 °F 3.2 °F 79% 29.74 in 10.0 mi NW 15.0 mph - N/A   Mostly Cloudy
4:15 AM 10.4 °F -6.6 °F 3.2 °F 73% 29.75 in 10.0 mi NW 16.1 mph 24.2 mph N/A   Overcast
4:35 AM 10.4 °F -6.6 °F 3.2 °F 73% 29.76 in 10.0 mi NW 16.1 mph 21.9 mph N/A   Overcast
4:55 AM 10.4 °F -6.0 °F 3.2 °F 73% 29.76 in 10.0 mi NW 15.0 mph - N/A   Overcast
5:15 AM 8.6 °F -8.3 °F 3.2 °F 79% 29.77 in 10.0 mi NW 15.0 mph - N/A   Scattered Clouds
5:35 AM 8.6 °F -5.5 °F 3.2 °F 79% 29.79 in 10.0 mi NW 10.4 mph - N/A   Partly Cloudy
5:55 AM 8.6 °F -6.3 °F 3.2 °F 79% 29.79 in 10.0 mi NW 11.5 mph - N/A   Partly Cloudy
6:15 AM 8.6 °F -6.3 °F 3.2 °F 79% 29.80 in 10.0 mi NW 11.5 mph - N/A   Clear
6:35 AM 8.6 °F -7.0 °F 1.4 °F 73% 29.82 in 10.0 mi NW 12.7 mph - N/A   Clear
6:55 AM 8.6 °F -7.0 °F 3.2 °F 79% 29.83 in 10.0 mi NW 12.7 mph - N/A   Clear
7:15 AM 8.6 °F -8.9 °F 3.2 °F 79% 29.83 in 10.0 mi NW 16.1 mph 20.7 mph N/A   Clear
7:35 AM 8.6 °F -7.7 °F 1.4 °F 73% 29.84 in 10.0 mi NW 13.8 mph - N/A   Clear
7:55 AM 8.6 °F -8.3 °F 3.2 °F 79% 29.86 in 10.0 mi NW 15.0 mph - N/A   Clear
8:15 AM 8.6 °F -8.9 °F 3.2 °F 79% 29.87 in 10.0 mi NW 16.1 mph - N/A   Clear
8:35 AM 10.4 °F -4.8 °F 3.2 °F 73% 29.88 in 10.0 mi NNW 12.7 mph - N/A   Clear
8:55 AM 10.4 °F -6.6 °F 3.2 °F 73% 29.89 in 10.0 mi NNW 16.1 mph - N/A   Clear
9:15 AM 10.4 °F -7.2 °F 3.2 °F 73% 29.90 in 10.0 mi NNW 17.3 mph - N/A   Clear
9:35 AM 12.2 °F -6.3 °F 5.0 °F 73% 29.92 in 10.0 mi NNW 20.7 mph - N/A   Clear
9:55 AM 12.2 °F -5.8 °F 5.0 °F 73% 29.93 in 10.0 mi NNW 19.6 mph 24.2 mph N/A   Clear
10:15 AM 14.0 °F -2.5 °F 5.0 °F 67% 29.95 in 10.0 mi NNW 17.3 mph - N/A   Clear
10:35 AM 15.8 °F 0.3 °F 6.8 °F 68% 29.95 in 10.0 mi NNW 16.1 mph - N/A   Clear
10:55 AM 15.8 °F 0.9 °F 6.8 °F 68% 29.96 in 10.0 mi NNW 15.0 mph - N/A   Clear
11:15 AM 15.8 °F -0.6 °F 6.8 °F 68% 29.96 in 10.0 mi North 18.4 mph - N/A   Clear
11:35 AM 17.6 °F 3.2 °F 6.8 °F 63% 29.96 in 10.0 mi NNW 15.0 mph - N/A   Clear
11:55 AM 17.6 °F 2.7 °F 6.8 °F 63% 29.95 in 10.0 mi NW 16.1 mph - N/A   Clear
12:15 PM 17.6 °F 4.3 °F 6.8 °F 63% 29.96 in 10.0 mi NW 12.7 mph - N/A   Clear
12:35 PM 17.6 °F 4.3 °F 8.6 °F 68% 29.97 in 10.0 mi NW 12.7 mph - N/A   Clear
12:55 PM 17.6 °F 5.0 °F 6.8 °F 63% 29.97 in 10.0 mi NNW 11.5 mph - N/A   Clear
1:15 PM 19.4 °F 6.6 °F 6.8 °F 58% 29.98 in 10.0 mi NW 12.7 mph - N/A   Clear
1:35 PM 19.4 °F 6.0 °F 8.6 °F 63% 29.98 in 10.0 mi NW 13.8 mph - N/A   Clear
1:55 PM 19.4 °F 4.5 °F 6.8 °F 58% 29.99 in 10.0 mi WNW 17.3 mph - N/A   Clear
2:15 PM 19.4 °F 5.0 °F 8.6 °F 63% 30.00 in 10.0 mi NW 16.1 mph - N/A   Clear
2:35 PM 19.4 °F 5.0 °F 6.8 °F 58% 30.01 in 10.0 mi NW 16.1 mph - N/A   Clear
2:55 PM 19.4 °F 4.5 °F 8.6 °F 63% 30.02 in 10.0 mi NW 17.3 mph - N/A   Clear
3:15 PM 17.6 °F 2.2 °F 8.6 °F 68% 30.03 in 10.0 mi NW 17.3 mph - N/A   Clear
3:35 PM 17.6 °F 4.3 °F 6.8 °F 63% 30.04 in 10.0 mi NW 12.7 mph - N/A   Clear
3:55 PM 17.6 °F 3.7 °F 6.8 °F 63% 30.05 in 10.0 mi WNW 13.8 mph - N/A   Clear
4:15 PM 17.6 °F 3.2 °F 6.8 °F 63% 30.05 in 10.0 mi NW 15.0 mph - N/A   Clear
4:35 PM 15.8 °F 2.7 °F 6.8 °F 68% 30.06 in 10.0 mi NW 11.5 mph - N/A   Clear
4:55 PM 15.8 °F 2.1 °F 5.0 °F 62% 30.06 in 10.0 mi NW 12.7 mph - N/A   Clear
5:15 PM 14.0 °F -0.2 °F 5.0 °F 67% 30.07 in 10.0 mi NW 12.7 mph - N/A   Clear
5:35 PM 12.2 °F -0.2 °F 6.8 °F 79% 30.07 in 10.0 mi NW 9.2 mph - N/A   Clear
5:55 PM 12.2 °F -1.0 °F 6.8 °F 79% 30.08 in 10.0 mi NW 10.4 mph - N/A   Clear
6:15 PM 12.2 °F -0.2 °F 6.8 °F 79% 30.08 in 10.0 mi NW 9.2 mph - N/A   Clear
6:35 PM 10.4 °F -4.1 °F 3.2 °F 73% 30.09 in 10.0 mi WNW 11.5 mph - N/A   Clear
6:55 PM 10.4 °F -4.1 °F 5.0 °F 79% 30.10 in 10.0 mi WNW 11.5 mph - N/A   Clear
7:15 PM 8.6 °F -4.7 °F 3.2 °F 79% 30.10 in 10.0 mi WNW 9.2 mph - N/A   Clear
7:35 PM 8.6 °F -3.7 °F 3.2 °F 79% 30.10 in 10.0 mi WNW 8.1 mph - N/A   Clear
7:55 PM 8.6 °F -1.3 °F 3.2 °F 79% 30.11 in 10.0 mi WNW 5.8 mph - N/A   Clear
8:15 PM 8.6 °F 2.0 °F 3.2 °F 79% 30.11 in 10.0 mi NW 3.5 mph - N/A   Clear
8:35 PM 8.6 °F 0.1 °F 3.2 °F 79% 30.12 in 10.0 mi NNW 4.6 mph - N/A   Clear
8:55 PM 8.6 °F 2.0 °F 1.4 °F 73% 30.12 in 10.0 mi NW 3.5 mph - N/A   Clear
9:15 PM 6.8 °F - 3.2 °F 85% 30.13 in 10.0 mi Calm Calm - N/A   Clear
9:35 PM 6.8 °F - 1.4 °F 79% 30.13 in 10.0 mi Calm Calm - N/A   Clear
9:55 PM 5.0 °F - -0.4 °F 78% 30.14 in 10.0 mi Calm Calm - N/A   Clear
10:15 PM 6.8 °F -0.1 °F 3.2 °F 85% 30.15 in 10.0 mi WNW 3.5 mph - N/A   Clear
10:35 PM 5.0 °F -4.1 °F 1.4 °F 85% 30.15 in 10.0 mi WNW 4.6 mph - N/A   Clear
10:55 PM 5.0 °F - 1.4 °F 85% 30.15 in 10.0 mi Calm Calm - N/A   Clear
11:15 PM 5.0 °F -4.1 °F 1.4 °F 85% 30.16 in 10.0 mi WNW 4.6 mph - N/A   Clear
11:35 PM 3.2 °F -6.2 °F -0.4 °F 85% 30.16 in 10.0 mi WNW 4.6 mph - N/A   Clear
11:55 PM 3.2 °F -7.8 °F 1.4 °F 92% 30.17 in 10.0 mi WNW 5.8 mph - N/A   Clear